"2016-01-22 00:00:00",1306011,3.507,134.3,6.342,1.323,4.416,100.12,-0.394,0.88,37.16,0,109.7,13.34,0.36,96.3
"2016-01-22 00:00:30",1306012,3.774,137.2,6.583,1.343,4.441,100.1217,-0.389,0.872,37.19,0,109.7,13.34,0.36,99.2
"2016-01-22 00:01:00",1306013,3.494,136.4,7.312,1.33,4.501,100.1197,-0.394,0.96,37.61,0,109.7,13.34,0.36,98.4
"2016-01-22 00:01:30",1306014,3.78,139,7.356,1.335,4.52,100.1033,-0.436,0.79,37.78,0,109.7,13.35,0.31,101.0
"2016-01-22 00:02:00",1306015,4.122,143.2,6.682,1.366,4.905,100.0885,-0.474,0.82,38.17,0,109.7,13.35,0.28,105.2
"2016-01-22 00:02:30",1306016,3.677,142.9,7.257,1.319,4.788,100.0885,-0.474,0.858,38.51,0,109.7,13.35,0.28,104.9
"2016-01-22 00:03:00",1306017,4.015,146.8,6.433,1.331,5.12,100.0826,-0.489,0.792,38.64,0,109.7,13.35,0.26,108.8
"2016-01-22 00:03:30",1306018,3.55,145,6.809,1.284,4.333,100.0747,-0.509,0.744,38.86,0,109.7,13.35,0.24,107.0
"2016-01-22 00:04:00",1306019,3.743,145.8,7.358,1.325,4.806,100.0687,-0.524,0.753,38.93,0,109.7,13.35,0.23,107.8
"2016-01-22 00:04:30",1306020,3.794,145.6,6.838,1.279,4.981,100.0583,-0.551,0.772,39,0,109.7,13.35,0.20,107.6
"2016-01-22 00:05:00",1306021,4.021,144.9,7.836,1.316,5.205,100.0472,-0.579,0.723,39.18,0,109.7,13.35,0.17,106.9
"2016-01-22 00:05:30",1306022,3.986,146.4,6.48,1.36,4.834,100.0402,-0.597,0.658,39.14,0,109.7,13.36,0.15,108.4
"2016-01-22 00:06:00",1306023,3.309,141.3,6.196,1.14,3.407,100.0294,-0.625,0.666,39.32,0,109.7,13.36,0.13,103.3
"2016-01-22 00:06:30",1306024,4.333,145.7,6.714,1.299,5.424,100.026,-0.633,0.66,39.52,0,109.7,13.36,0.12,107.7
"2016-01-22 00:07:00",1306025,3.382,142.3,5.676,1.155,4.29,100.0147,-0.662,0.669,39.46,0,109.7,13.36,0.09,104.3
"2016-01-22 00:07:30",1306026,4.726,143.9,6.594,1.206,6.049,100.011,-0.671,0.691,39.49,0,109.7,13.36,0.08,105.9
"2016-01-22 00:08:00",1306027,3.865,136.7,7.133,1.309,4.409,100,-0.7,0.561,39.09,0,109.7,13.36,0.05,98.7
"2016-01-22 00:08:30",1306028,3.877,137.2,6.651,1.341,4.621,99.99179,-0.721,0.588,38.92,0,109.7,13.36,0.03,99.2
"2016-01-22 00:09:00",1306029,4.076,140,7.093,1.382,4.973,99.98048,-0.749,0.56,38.86,0,109.7,13.36,0.00,102.0
"2016-01-22 00:09:30",1306030,4.06,140.4,6.875,1.369,5.519,99.96915,-0.778,0.505,38.65,0,109.7,13.36,-0.03,102.4
"2016-01-22 00:10:00",1306031,3.414,141,6.935,1.332,5.268,99.96604,-0.786,0.525,38.54,0,109.7,13.36,-0.04,103.0
"2016-01-22 00:10:30",1306032,3.664,144.5,6.635,1.359,5.539,99.96321,-0.793,0.534,38.42,0,109.7,13.36,-0.04,106.5
"2016-01-22 00:11:00",1306033,2.778,139.5,6.017,1.186,3.803,99.9533,-0.819,0.451,38.33,0,109.7,13.36,-0.07,101.5
"2016-01-22 00:11:30",1306034,3.021,140.9,6.477,1.276,4.004,99.95557,-0.813,0.4,38.26,0,109.7,13.36,-0.06,102.9
"2016-01-22 00:12:00",1306035,3.324,141.6,6.32,1.318,4.22,99.94736,-0.834,0.42,38.33,0,109.7,13.36,-0.08,103.6
"2016-01-22 00:12:30",1306036,3.558,142.7,6.934,1.335,5.014,99.94651,-0.836,0.423,38.38,0,109.6,13.36,-0.09,104.7
"2016-01-22 00:13:00",1306037,3.758,142.9,7.056,1.355,5.529,99.94764,-0.833,0.441,38.44,0,109.6,13.36,-0.08,104.9
"2016-01-22 00:13:30",1306038,3.494,139.2,6.75,1.255,4.885,99.93688,-0.86,0.368,38.4,0,109.6,13.36,-0.11,101.2
"2016-01-22 00:14:00",1306039,3.737,138.8,6.757,1.327,4.852,99.93263,-0.871,0.339,38.44,0,109.6,13.36,-0.12,100.8
"2016-01-22 00:14:30",1306040,3.563,137.7,6.506,1.309,4.575,99.93179,-0.873,0.404,38.58,0,109.6,13.36,-0.12,99.7
"2016-01-22 00:15:00",1306041,4.139,139.3,7.061,1.372,4.48,99.92159,-0.899,0.34,38.71,0,109.6,13.36,-0.15,101.3
"2016-01-22 00:15:30",1306042,3.774,140.7,6.974,1.292,4.54,99.92272,-0.897,0.356,39.2,0,109.6,13.37,-0.15,102.7
"2016-01-22 00:16:00",1306043,4.55,148.8,6.495,1.287,6.153,99.92272,-0.897,0.427,39.74,0,109.6,13.37,-0.15,110.8
"2016-01-22 00:16:30",1306044,4.113,145.7,7.781,1.356,4.756,99.91565,-0.915,0.279,39.97,0,109.6,13.37,-0.17,107.7
"2016-01-22 00:17:00",1306045,3.98,143,5.594,1.327,4.554,99.91028,-0.928,0.326,40.18,0,109.6,13.37,-0.18,105.0
"2016-01-22 00:17:30",1306046,3.893,138.2,6.612,1.3,4.083,99.90942,-0.93,0.287,39.99,0,109.6,13.37,-0.18,100.2
"2016-01-22 00:18:00",1306047,4.086,138.1,7.102,1.338,4.58,99.90376,-0.945,0.3,39.91,0,109.6,13.37,-0.20,100.1
"2016-01-22 00:18:30",1306048,4.705,140.6,6.759,1.313,5.529,99.89922,-0.956,0.303,39.85,0,109.6,13.37,-0.21,102.6
"2016-01-22 00:19:00",1306049,4.805,140,6.654,1.284,5.844,99.89724,-0.962,0.266,39.8,0,109.6,13.37,-0.21,102.0
"2016-01-22 00:19:30",1306050,4.698,141,6.737,1.342,5.444,99.89809,-0.959,0.318,39.92,0,109.6,13.37,-0.21,103.0
"2016-01-22 00:20:00",1306051,4.215,141.1,6.659,1.33,4.462,99.89328,-0.972,0.195,39.98,0,109.6,13.38,-0.22,103.1
"2016-01-22 00:20:30",1306052,4.546,145,7.409,1.357,5.298,99.88309,-0.998,0.302,40.27,0,109.6,13.38,-0.25,107.0
"2016-01-22 00:21:00",1306053,4.212,150.4,6.794,1.38,4.807,99.88083,-1.003,0.268,40.48,0,109.6,13.38,-0.25,112.4
"2016-01-22 00:21:30",1306054,4.646,152.6,7.383,1.305,5.784,99.87828,-1.01,0.284,40.77,0,109.6,13.38,-0.26,114.6
"2016-01-22 00:22:00",1306055,4.336,149.6,6.984,1.357,5.608,99.86893,-1.034,0.234,40.74,0,109.6,13.38,-0.29,111.6
"2016-01-22 00:22:30",1306056,4.098,149.4,7.117,1.351,4.638,99.86413,-1.046,0.188,40.69,0,109.6,13.38,-0.30,111.4
"2016-01-22 00:23:00",1306057,3.736,145.7,6.19,1.24,3.989,99.86413,-1.046,0.14,40.75,0,109.6,13.38,-0.30,107.7
"2016-01-22 00:23:30",1306058,4.261,149.2,6.67,1.337,5.457,99.86413,-1.046,0.253,40.88,0,109.6,13.38,-0.30,111.2
"2016-01-22 00:24:00",1306059,4.035,149.9,7.168,1.347,5.052,99.86299,-1.049,0.2,40.85,0,109.6,13.38,-0.30,111.9
"2016-01-22 00:24:30",1306060,3.83,152.6,7.344,1.361,5.023,99.85648,-1.065,0.218,40.93,0,109.6,13.38,-0.32,114.6
"2016-01-22 00:25:00",1306061,4.04,153.2,8.01,1.376,5.139,99.84997,-1.082,0.179,40.93,0,109.6,13.38,-0.33,115.2
"2016-01-22 00:25:30",1306062,3.403,149.1,6.338,1.212,3.777,99.84884,-1.085,0.1,40.87,0,109.6,13.38,-0.34,111.1
"2016-01-22 00:26:00",1306063,3.962,153.8,7.48,1.364,4.914,99.85053,-1.081,0.161,40.97,0,109.6,13.38,-0.33,115.8
"2016-01-22 00:26:30",1306064,4.047,153.4,7.257,1.366,5.7,99.8511,-1.079,0.188,40.96,0,109.6,13.38,-0.33,115.4
"2016-01-22 00:27:00",1306065,4.08,152.8,7.196,1.337,5.31,99.84232,-1.102,0.132,40.95,0,109.6,13.38,-0.35,114.8
"2016-01-22 00:27:30",1306066,3.489,150.4,6.526,1.222,4.537,99.84288,-1.1,0.157,41.01,0,109.6,13.38,-0.35,112.4
"2016-01-22 00:28:00",1306067,3.795,151.1,6.704,1.331,4.189,99.84486,-1.095,0.028,40.93,0,109.6,13.38,-0.35,113.1
"2016-01-22 00:28:30",1306068,3.716,152.2,7.325,1.32,4.564,99.84628,-1.091,0.144,41.04,0,109.6,13.38,-0.34,114.2
"2016-01-22 00:29:00",1306069,4.303,153.8,7.104,1.31,5.468,99.83862,-1.111,0.084,40.97,0,109.6,13.38,-0.36,115.8
"2016-01-22 00:29:30",1306070,3.471,149.2,6.327,1.248,4.375,99.83126,-1.13,0.052,40.93,0,109.6,13.38,-0.38,111.2
"2016-01-22 00:30:00",1306071,3.671,149,7.186,1.313,4.858,99.82984,-1.133,0.16,41.02,0,109.6,13.38,-0.39,111.0
"2016-01-22 00:30:30",1306072,3.967,147.7,6.745,1.329,4.879,99.83126,-1.13,0.06,40.86,0,109.6,13.38,-0.38,109.7
"2016-01-22 00:31:00",1306073,3.678,144.7,6.847,1.323,3.717,99.82362,-1.149,0.007,40.82,0,109.6,13.38,-0.40,106.7
"2016-01-22 00:31:30",1306074,3.622,143.5,6.738,1.279,4.1,99.82078,-1.156,0.039,40.9,0,109.6,13.39,-0.41,105.5
"2016-01-22 00:32:00",1306075,4.046,144.5,6.791,1.36,4.937,99.81965,-1.159,0.074,41,0,109.6,13.39,-0.41,106.5
"2016-01-22 00:32:30",1306076,4.093,144.6,6.984,1.342,4.972,99.82105,-1.156,0.063,41,0,109.6,13.39,-0.41,106.6
"2016-01-22 00:33:00",1306077,4.256,144.5,6.47,1.342,5.303,99.82133,-1.155,0.078,40.98,0,109.6,13.39,-0.41,106.5
"2016-01-22 00:33:30",1306078,4.227,145.7,7.02,1.341,5.152,99.82162,-1.154,0.06,40.91,0,109.6,13.39,-0.41,107.7
"2016-01-22 00:34:00",1306079,3.444,142.2,6.307,1.2,3.436,99.82162,-1.154,0.012,40.91,0,109.6,13.39,-0.41,104.2
"2016-01-22 00:34:30",1306080,4.317,146.3,6.468,1.334,5.498,99.82247,-1.152,0.073,40.95,0,109.6,13.39,-0.40,108.3
"2016-01-22 00:35:00",1306081,3.494,142.9,6.375,1.263,4.12,99.82445,-1.147,-0.003,40.88,0,109.6,13.39,-0.40,104.9
"2016-01-22 00:35:30",1306082,4.167,151.3,7.436,1.339,5.684,99.82558,-1.144,0.103,40.98,0,109.6,13.4,-0.40,113.3
"2016-01-22 00:36:00",1306083,3.845,153.6,6.775,1.298,4.208,99.82445,-1.147,-0.024,40.89,0,109.6,13.4,-0.40,115.6
"2016-01-22 00:36:30",1306084,4.042,155.9,7.297,1.346,4.446,99.82133,-1.155,0.058,41.12,0,109.6,13.4,-0.41,117.9
"2016-01-22 00:37:00",1306085,3.891,156.2,6.055,1.245,4.086,99.81368,-1.175,0.055,41.27,0,109.6,13.4,-0.43,118.2
"2016-01-22 00:37:30",1306086,4.662,160.1,7.075,1.361,5.04,99.81339,-1.175,0.017,41.73,0,109.6,13.4,-0.43,122.1
"2016-01-22 00:38:00",1306087,4.619,158.8,7.389,1.348,5.114,99.81113,-1.181,0.036,42.17,0,109.6,13.4,-0.43,120.8
"2016-01-22 00:38:30",1306088,5.106,159,6.852,1.292,5.844,99.8032,-1.201,0.098,42.39,0,109.6,13.4,-0.45,121.0
"2016-01-22 00:39:00",1306089,4.57,158.2,7.498,1.332,4.567,99.79895,-1.212,0.023,42.37,0,109.6,13.4,-0.46,120.2
"2016-01-22 00:39:30",1306090,4.88,161.3,6.954,1.313,4.653,99.79613,-1.219,-0.04,42.41,0,109.6,13.4,-0.47,123.3
"2016-01-22 00:40:00",1306091,4.67,160.9,6.994,1.363,5.052,99.79613,-1.219,0.058,42.47,0,109.6,13.4,-0.47,122.9
"2016-01-22 00:40:30",1306092,4.829,162.1,7.144,1.321,5.241,99.79613,-1.219,0.006,42.45,0,109.6,13.4,-0.47,124.1
"2016-01-22 00:41:00",1306093,4.847,162.6,6.981,1.338,5.617,99.79613,-1.219,0.082,42.61,0,109.6,13.4,-0.47,124.6
"2016-01-22 00:41:30",1306094,4.618,160.2,6.666,1.345,5.262,99.79585,-1.22,-0.034,42.27,0,109.6,13.4,-0.47,122.2
"2016-01-22 00:42:00",1306095,4.327,158.4,7.028,1.334,4.002,99.7916,-1.231,-0.084,42.01,0,109.6,13.4,-0.48,120.4
"2016-01-22 00:42:30",1306096,4.24,160.3,6.899,1.337,4.724,99.78252,-1.254,-0.004,42.06,0,109.6,13.4,-0.51,122.3
"2016-01-22 00:43:00",1306097,5.074,161.5,6.491,1.205,6.189,99.77914,-1.263,0.06,42,0,109.6,13.4,-0.52,123.5
"2016-01-22 00:43:30",1306098,4.676,158.4,7.461,1.328,5.006,99.77942,-1.262,-0.013,41.89,0,109.6,13.4,-0.51,120.4
"2016-01-22 00:44:00",1306099,4.869,159.4,6.877,1.379,5.102,99.7763,-1.27,-0.047,41.92,0,109.6,13.39,-0.52,121.4
"2016-01-22 00:44:30",1306100,4.36,156.9,6.846,1.306,4.014,99.77092,-1.284,-0.051,41.9,0,109.6,13.4,-0.54,118.9
"2016-01-22 00:45:00",1306101,4.18,152.9,5.535,1.318,4.516,99.76752,-1.292,-0.027,41.86,0,109.6,13.4,-0.54,114.9
"2016-01-22 00:45:30",1306102,4.467,152.2,6.86,1.391,4.785,99.76582,-1.297,-0.051,41.72,0,109.6,13.39,-0.55,114.2
"2016-01-22 00:46:00",1306103,4.519,153.9,6.5,1.303,5.125,99.76468,-1.299,-0.03,41.66,0,109.6,13.39,-0.55,115.9
"2016-01-22 00:46:30",1306104,4.737,155.7,7.352,1.43,5.285,99.76751,-1.292,-0.017,41.7,0,109.6,13.39,-0.54,117.7
"2016-01-22 00:47:00",1306105,4.441,157.5,6.881,1.32,4.258,99.77005,-1.286,-0.074,41.71,0,109.6,13.4,-0.54,119.5
"2016-01-22 00:47:30",1306106,5.029,159.6,6.521,1.352,5.086,99.7709,-1.284,-0.059,41.72,0,109.6,13.39,-0.54,121.6
"2016-01-22 00:48:00",1306107,4.509,157.2,7.166,1.281,4.335,99.77119,-1.283,-0.058,41.74,0,109.6,13.4,-0.54,119.2
"2016-01-22 00:48:30",1306108,5.32,159.2,6.921,1.324,5.861,99.77656,-1.269,-0.016,41.87,0,109.6,13.4,-0.52,121.2
"2016-01-22 00:49:00",1306109,4.98,155.4,6.943,1.324,5.129,99.77711,-1.268,-0.04,41.93,0,109.6,13.4,-0.52,117.4
"2016-01-22 00:49:30",1306110,5.792,159.8,6.714,1.231,5.961,99.77824,-1.265,0.013,42.04,0,109.6,13.4,-0.52,121.8
"2016-01-22 00:50:00",1306111,5.352,156.3,6.813,1.259,4.391,99.77966,-1.261,-0.088,42.16,0,109.6,13.4,-0.51,118.3
"2016-01-22 00:50:30",1306112,5.474,157.5,6.998,1.356,4.806,99.77824,-1.265,-0.051,42.32,0,109.6,13.4,-0.52,119.5
"2016-01-22 00:51:00",1306113,5.359,159.6,7.03,1.347,4.934,99.77881,-1.263,-0.09,42.23,0,109.6,13.4,-0.52,121.6
"2016-01-22 00:51:30",1306114,5.593,160.9,6.902,1.365,5.375,99.77683,-1.268,-0.067,42.21,0,109.6,13.41,-0.52,122.9
"2016-01-22 00:52:00",1306115,6.221,163.1,6.823,1.364,5.733,99.77598,-1.271,-0.051,42.46,0,109.6,13.4,-0.52,125.1
"2016-01-22 00:52:30",1306116,5.931,161.6,6.906,1.327,5.54,99.77174,-1.281,-0.017,42.94,0,109.6,13.4,-0.53,123.6
"2016-01-22 00:53:00",1306117,6.048,164.2,6.774,1.335,5.429,99.77116,-1.283,-0.016,43.03,0,109.6,13.4,-0.54,126.2
"2016-01-22 00:53:30",1306118,6.033,163.9,6.797,1.327,5.419,99.77145,-1.282,-0.069,42.72,0,109.6,13.4,-0.53,125.9
"2016-01-22 00:54:00",1306119,5.109,158.4,6.425,1.179,3.963,99.77003,-1.286,-0.098,42.51,0,109.6,13.4,-0.54,120.4
"2016-01-22 00:54:30",1306120,5.982,165,6.773,1.279,5.555,99.76946,-1.287,-0.14,42.47,0,109.6,13.4,-0.54,127.0
"2016-01-22 00:55:00",1306121,5.379,167.4,7.029,1.304,5.43,99.76608,-1.296,-0.026,42.38,0,109.6,13.4,-0.55,129.4
"2016-01-22 00:55:30",1306122,5.659,168.5,6.75,1.326,5.705,99.76635,-1.295,-0.042,42.05,0,109.6,13.4,-0.55,130.5
"2016-01-22 00:56:00",1306123,5.621,166.6,6.374,1.262,5.746,99.7706,-1.284,-0.06,42.04,0,109.6,13.4,-0.54,128.6
"2016-01-22 00:56:30",1306124,5.101,163.9,7.058,1.26,4.825,99.77483,-1.274,-0.087,41.92,0,109.6,13.4,-0.53,125.9
"2016-01-22 00:57:00",1306125,4.502,159.7,6.043,1.268,3.988,99.7771,-1.268,-0.155,41.82,0,109.6,13.4,-0.52,121.7
"2016-01-22 00:57:30",1306126,4.544,159.1,7.177,1.329,4.955,99.77908,-1.263,-0.064,41.78,0,109.6,13.4,-0.52,121.1
"2016-01-22 00:58:00",1306127,4.815,161,6.513,1.329,6.242,99.78474,-1.248,-0.023,41.74,0,109.6,13.41,-0.50,123.0
"2016-01-22 00:58:30",1306128,4.792,160.3,6.995,1.319,6.099,99.7853,-1.247,-0.073,41.61,0,109.6,13.41,-0.50,122.3
"2016-01-22 00:59:00",1306129,3.97,157.7,6.344,1.231,4.532,99.78616,-1.245,-0.103,41.55,0,109.6,13.42,-0.50,119.7
"2016-01-22 00:59:30",1306130,4.501,161.2,7.237,1.395,4.721,99.78728,-1.242,-0.082,41.59,0,109.6,13.42,-0.49,123.2
"2016-01-22 01:00:00",1306131,4.821,165.6,7.042,1.345,5.642,99.78813,-1.24,-0.076,41.66,0,109.6,13.41,-0.49,127.6
"2016-01-22 01:00:30",1306132,4.433,164.4,6.89,1.309,4.766,99.78785,-1.24,-0.069,41.73,0,109.6,13.4,-0.49,126.4
"2016-01-22 01:01:00",1306133,4.725,166.5,6.747,1.365,5.828,99.78813,-1.24,-0.016,41.76,0,109.6,13.4,-0.49,128.5
"2016-01-22 01:01:30",1306134,4.765,167.9,7.306,1.337,4.679,99.78842,-1.239,-0.139,41.7,0,109.6,13.4,-0.49,129.9
"2016-01-22 01:02:00",1306135,4.686,166.4,6.803,1.378,4.514,99.78927,-1.237,-0.064,41.84,0,109.6,13.4,-0.49,128.4
"2016-01-22 01:02:30",1306136,4.698,168.9,7.688,1.321,5.23,99.78927,-1.237,-0.093,41.76,0,109.5,13.4,-0.49,130.9
"2016-01-22 01:03:00",1306137,3.728,165.6,6.191,1.141,4.094,99.78927,-1.237,-0.116,41.66,0,109.5,13.4,-0.49,127.6
"2016-01-22 01:03:30",1306138,4.796,171.5,6.867,1.384,5.628,99.78983,-1.235,-0.046,41.65,0,109.6,13.41,-0.49,133.5
"2016-01-22 01:04:00",1306139,4.677,172.4,6.978,1.313,5.798,99.78899,-1.237,-0.005,41.8,0,109.6,13.4,-0.49,134.4
"2016-01-22 01:04:30",1306140,4.121,171.5,6.407,1.248,5.227,99.79351,-1.226,-0.058,41.67,0,109.5,13.4,-0.48,133.5
"2016-01-22 01:05:00",1306141,3.978,168.7,7.265,1.343,4.746,99.79351,-1.226,-0.073,41.51,0,109.5,13.41,-0.48,130.7
"2016-01-22 01:05:30",1306142,3.076,162.8,5.904,1.152,3.963,99.79861,-1.213,-0.074,41.47,0,109.5,13.42,-0.47,124.8
"2016-01-22 01:06:00",1306143,3.33,162.8,7.013,1.275,4.322,99.79974,-1.21,-0.043,41.47,0,109.6,13.42,-0.46,124.8
"2016-01-22 01:06:30",1306144,3.786,164.8,7.33,1.391,5.324,99.80371,-1.2,-0.037,41.47,0,109.6,13.42,-0.45,126.8
"2016-01-22 01:07:00",1306145,3.535,163.2,6.799,1.341,4.661,99.80653,-1.193,-0.058,41.42,0,109.5,13.42,-0.44,125.2
"2016-01-22 01:07:30",1306146,3.077,162.5,6.133,1.176,3.831,99.80711,-1.191,-0.107,41.35,0,109.5,13.42,-0.44,124.5
"2016-01-22 01:08:00",1306147,3.645,168.2,6.876,1.366,4.926,99.80908,-1.186,-0.015,41.39,0,109.5,13.42,-0.44,130.2
"2016-01-22 01:08:30",1306148,3.574,168.5,6.973,1.282,5.223,99.80965,-1.185,-0.024,41.33,0,109.6,13.42,-0.44,130.5
"2016-01-22 01:09:00",1306149,3.193,166.5,6.427,1.274,4.364,99.81107,-1.181,-0.096,41.22,0,109.6,13.42,-0.43,128.5
"2016-01-22 01:09:30",1306150,4.128,173.8,6.603,1.239,6.523,99.8122,-1.178,0.029,41.34,0,109.5,13.42,-0.43,135.8
"2016-01-22 01:10:00",1306151,2.865,167.7,5.819,1.146,4.098,99.81276,-1.177,-0.037,41.21,0,109.5,13.42,-0.43,129.7
"2016-01-22 01:10:30",1306152,2.952,167.3,6.03,1.161,3.75,99.81304,-1.176,-0.142,41.11,0,109.5,13.42,-0.43,129.3
"2016-01-22 01:11:00",1306153,3.293,168.5,6.705,1.341,4.644,99.81304,-1.176,0.017,41.3,0,109.5,13.42,-0.43,130.5
"2016-01-22 01:11:30",1306154,4.157,171.8,6.881,1.302,5.742,99.81389,-1.174,0.002,41.28,0,109.5,13.42,-0.43,133.8
"2016-01-22 01:12:00",1306155,3.015,167.9,6.993,1.198,4.505,99.81418,-1.173,-0.033,41.29,0,109.5,13.42,-0.43,129.9
"2016-01-22 01:12:30",1306156,3.835,172.7,6.659,1.319,5.74,99.81644,-1.167,0.028,41.29,0,109.5,13.42,-0.42,134.7
"2016-01-22 01:13:00",1306157,3.252,171.5,6.936,1.256,4.552,99.81701,-1.166,0.046,41.31,0,109.5,13.42,-0.42,133.5
"2016-01-22 01:13:30",1306158,3.052,171,5.732,1.196,3.389,99.82324,-1.15,-0.162,41.08,0,109.5,13.42,-0.40,133.0
"2016-01-22 01:14:00",1306159,3.733,177,8.04,1.409,5.441,99.8258,-1.144,0.044,41.26,0,109.5,13.42,-0.40,139.0
"2016-01-22 01:14:30",1306160,4.401,183.8,7.058,1.32,6.056,99.82806,-1.138,0.077,41.28,0,109.5,13.42,-0.39,145.8
"2016-01-22 01:15:00",1306161,4.095,181.6,7.675,1.445,5.679,99.82948,-1.134,0.049,41.1,0,109.6,13.42,-0.39,143.6
"2016-01-22 01:15:30",1306162,4.3,182,9.19,1.43,5.356,99.83005,-1.133,0.027,41.04,0,109.6,13.42,-0.38,144.0
"2016-01-22 01:16:00",1306163,4.754,179.4,7.473,1.42,4.742,99.83005,-1.133,0.034,41.34,0,109.5,13.42,-0.38,141.4
"2016-01-22 01:16:30",1306164,4.391,184.2,7.015,1.439,4.021,99.83005,-1.133,-0.055,41.49,0,109.5,13.42,-0.38,146.2
"2016-01-22 01:17:00",1306165,4.49,185.8,6.016,1.385,4.544,99.83005,-1.133,0.043,41.35,0,109.5,13.42,-0.38,147.8
"2016-01-22 01:17:30",1306166,5.139,187.1,6.591,1.337,5.802,99.83033,-1.132,0.065,41.32,0,109.5,13.42,-0.38,149.1
"2016-01-22 01:18:00",1306167,4.726,184.7,6.741,1.36,5.375,99.83005,-1.133,0.017,41.34,0,109.5,13.42,-0.38,146.7
"2016-01-22 01:18:30",1306168,4.452,187.8,6.48,1.417,4.945,99.83005,-1.133,0.031,41.28,0,109.5,13.42,-0.38,149.8
"2016-01-22 01:19:00",1306169,3.686,184.4,6.712,1.302,4.162,99.83033,-1.132,0.006,41.19,0,109.5,13.42,-0.38,146.4
"2016-01-22 01:19:30",1306170,3.159,184.9,5.497,1.064,3.701,99.83005,-1.133,-0.045,41.04,0,109.5,13.41,-0.38,146.9
"2016-01-22 01:20:00",1306171,3.905,187.7,7.977,1.36,5.789,99.8306,-1.131,0.096,40.93,0,109.5,13.42,-0.38,149.7
"2016-01-22 01:20:30",1306172,4.023,185.1,7.489,1.344,5.325,99.83005,-1.133,0.051,40.89,0,109.5,13.41,-0.38,147.1
"2016-01-22 01:21:00",1306173,3.6,186.1,8.02,1.349,5.298,99.83118,-1.13,0.021,40.92,0,109.5,13.41,-0.38,148.1
"2016-01-22 01:21:30",1306174,2.927,177.5,6.778,1.167,4.119,99.83118,-1.13,0.001,40.73,0,109.5,13.42,-0.38,139.5
"2016-01-22 01:22:00",1306175,2.948,179.2,6.185,1.29,3.782,99.8306,-1.131,-0.091,40.64,0,109.5,13.42,-0.38,141.2
"2016-01-22 01:22:30",1306176,3.272,181.2,8.56,1.281,4.481,99.83118,-1.13,-0.003,40.75,0,109.5,13.42,-0.38,143.2
"2016-01-22 01:23:00",1306177,3.044,184.8,5.524,1.308,5.25,99.83287,-1.126,0.068,40.67,0,109.5,13.42,-0.38,146.8
"2016-01-22 01:23:30",1306178,3.144,187.9,8.21,1.37,5.78,99.83174,-1.129,0.06,40.29,0,109.5,13.42,-0.38,149.9
"2016-01-22 01:24:00",1306179,4.091,188.2,6.746,1.201,6.78,99.83315,-1.125,0.1,40.16,0,109.5,13.42,-0.38,150.2
"2016-01-22 01:24:30",1306180,3.013,181.9,6.996,1.163,4.472,99.83485,-1.121,0.033,40.33,0,109.5,13.43,-0.37,143.9
"2016-01-22 01:25:00",1306181,2.878,180.3,4.626,1.129,3.533,99.83655,-1.116,-0.086,40.21,0,109.5,13.43,-0.37,142.3
"2016-01-22 01:25:30",1306182,3.174,182.3,7.012,1.265,3.704,99.83712,-1.115,-0.022,40.37,0,109.5,13.43,-0.37,144.3
"2016-01-22 01:26:00",1306183,3.302,189.2,8.64,1.362,5.728,99.84107,-1.105,0.124,40.54,0,109.5,13.43,-0.36,151.2
"2016-01-22 01:26:30",1306184,2.94,186.2,6.801,1.325,5.105,99.83825,-1.112,0.115,40.13,0,109.5,13.43,-0.36,148.2
"2016-01-22 01:27:00",1306185,2.98,190.9,7.922,1.354,5.476,99.83797,-1.113,0.036,40.06,0,109.5,13.43,-0.36,152.9
"2016-01-22 01:27:30",1306186,2.757,191.9,6.443,1.346,5.467,99.83881,-1.11,0.071,39.98,0,109.5,13.43,-0.36,153.9
"2016-01-22 01:28:00",1306187,1.439,193.7,7.671,0.726,2.648,99.83852,-1.111,-0.094,39.74,0,109.5,13.43,-0.36,155.7
"2016-01-22 01:28:30",1306188,1.793,201,8.5,1.236,3.557,99.83965,-1.108,-0.025,39.6,0,109.5,13.43,-0.36,163.0
"2016-01-22 01:29:00",1306189,2.514,198.5,7.221,1.316,4.787,99.83797,-1.113,0.024,39.5,0,109.5,13.43,-0.36,160.5
"2016-01-22 01:29:30",1306190,2.964,199.8,9.1,1.351,6.268,99.83768,-1.113,0.164,39.55,0,109.5,13.43,-0.37,161.8
"2016-01-22 01:30:00",1306191,2.917,199.5,7.71,1.357,5.805,99.83938,-1.109,0.048,39.38,0,109.5,13.43,-0.36,161.5
"2016-01-22 01:30:30",1306192,2.988,198.8,5.548,1.394,5.684,99.83994,-1.108,0.051,39.29,0,109.5,13.43,-0.36,160.8
"2016-01-22 01:31:00",1306193,1.903,195.1,4.198,0.85,3.284,99.83938,-1.109,0.009,39.19,0,109.5,13.43,-0.36,157.1
"2016-01-22 01:31:30",1306194,1.753,191,4.274,0.707,2.796,99.84051,-1.106,-0.07,38.94,0,109.5,13.43,-0.36,153.0
"2016-01-22 01:32:00",1306195,2.698,194.1,7.104,1.286,4.693,99.84164,-1.103,0.014,38.95,0,109.5,13.43,-0.36,156.1
"2016-01-22 01:32:30",1306196,3.512,196.9,6.878,1.287,6.494,99.8422,-1.102,0.161,39,0,109.5,13.43,-0.35,158.9
"2016-01-22 01:33:00",1306197,3.658,194.1,6.876,1.323,7.311,99.84504,-1.095,0.181,39.02,0,109.5,13.43,-0.35,156.1
"2016-01-22 01:33:30",1306198,3.622,188.3,7.636,1.275,5.6,99.84305,-1.1,0.088,39.15,0,109.5,13.43,-0.35,150.3
"2016-01-22 01:34:00",1306199,3.209,183.3,6.448,1.162,4.086,99.84249,-1.101,0.001,39.36,0,109.5,13.43,-0.35,145.3
"2016-01-22 01:34:30",1306200,2.579,179.1,2.453,0.12,2.678,99.84079,-1.105,-0.031,39.46,0,109.5,13.47,-0.36,141.1
"2016-01-22 01:35:00",1306201,4.459,184.2,6.638,1.403,5.38,99.84475,-1.095,0.107,39.74,0,109.5,13.42,-0.35,146.2
"2016-01-22 01:35:30",1306202,4.897,184,6.92,1.36,5.986,99.84504,-1.095,0.16,40.02,0,109.5,13.43,-0.35,146.0
"2016-01-22 01:36:00",1306203,5.17,186,6.15,1.294,6.552,99.84475,-1.095,0.16,40.22,0,109.5,13.42,-0.35,148.0
"2016-01-22 01:36:30",1306204,5.032,184,6.914,1.374,5.804,99.84702,-1.09,0.133,40.33,0,109.6,13.42,-0.34,146.0
"2016-01-22 01:37:00",1306205,5.045,184.6,6.908,1.373,4.836,99.84673,-1.09,0.077,40.38,0,109.5,13.42,-0.34,146.6
"2016-01-22 01:37:30",1306206,4.271,182.2,5.143,0.939,2.936,99.84673,-1.09,0.027,40.43,0,109.5,13.42,-0.34,144.2
"2016-01-22 01:38:00",1306207,5.197,187.5,6.739,1.291,4.25,99.8473,-1.089,0.017,40.49,0,109.5,13.42,-0.34,149.5
"2016-01-22 01:38:30",1306208,5.387,190.4,6.762,1.321,5.657,99.84814,-1.087,0.16,40.71,0,109.5,13.43,-0.34,152.4
"2016-01-22 01:39:00",1306209,5.791,192.2,6.391,1.245,6.041,99.84814,-1.087,0.177,40.73,0,109.5,13.43,-0.34,154.2
"2016-01-22 01:39:30",1306210,5.816,192.3,6.592,1.233,6.018,99.84871,-1.085,0.164,40.77,0,109.5,13.43,-0.34,154.3
"2016-01-22 01:40:00",1306211,5.296,189.8,6.988,1.313,4.762,99.84843,-1.086,0.08,40.79,0,109.5,13.43,-0.34,151.8
"2016-01-22 01:40:30",1306212,4.748,186.5,6.254,1.192,3.602,99.84985,-1.082,0.066,40.78,0,109.5,13.43,-0.33,148.5
"2016-01-22 01:41:00",1306213,5.44,189.6,6.954,1.358,4.812,99.85069,-1.08,0.077,40.79,0,109.5,13.43,-0.33,151.6
"2016-01-22 01:41:30",1306214,5.724,189.6,6.84,1.318,5.503,99.84899,-1.085,0.077,40.76,0,109.5,13.43,-0.34,151.6
"2016-01-22 01:42:00",1306215,5.486,188.1,6.622,1.327,5.726,99.85012,-1.082,0.166,40.7,0,109.5,13.43,-0.33,150.1
"2016-01-22 01:42:30",1306216,5.386,187.1,6.793,1.309,5.85,99.85182,-1.077,0.161,40.5,0,109.5,13.43,-0.33,149.1
"2016-01-22 01:43:00",1306217,4.429,181.6,7.038,1.226,3.789,99.85069,-1.08,-0.001,40.23,0,109.5,13.43,-0.33,143.6
"2016-01-22 01:43:30",1306218,4.799,182.2,6.601,1.355,4.274,99.85126,-1.079,0.103,40.34,0,109.5,13.43,-0.33,144.2
"2016-01-22 01:44:00",1306219,4.633,181.3,6.238,1.365,4.399,99.85438,-1.071,0.039,40.26,0,109.5,13.43,-0.32,143.3
"2016-01-22 01:44:30",1306220,4.078,189.6,8.67,1.194,4.873,99.85721,-1.064,0.092,40.21,0,109.5,13.43,-0.32,151.6
"2016-01-22 01:45:00",1306221,4.644,205.8,7.332,1.289,6.31,99.85863,-1.06,0.16,39.93,0,109.5,13.43,-0.31,167.8
"2016-01-22 01:45:30",1306222,4.215,209.5,7.918,1.314,5.922,99.86174,-1.052,0.132,39.48,0,109.5,13.43,-0.30,171.5